Weather History for Hoonah, AK

Change the Weather History Date:

Saturday, August 3, 2013

  Actual Average Record
Temperature  
Mean Temperature 55 °F -  
Max Temperature 63 °F 62 °F 73 °F (1998)
Min Temperature 47 °F 49 °F 44 °F (1998)
Degree Days  
Heating Degree Days 10    
Growing Degree Days 5 (Base 50)    
Moisture  
Dew Point 52 °F    
Average Humidity 86    
Maximum Humidity 100    
Minimum Humidity 72    
Precipitation  
Precipitation 0.00 in - - ()
Sea Level Pressure  
Sea Level Pressure 30.15 in    
Wind  
Wind Speed 3 mph (East)    
Max Wind Speed 12 mph    
Max Gust Speed -    
Visibility 10 miles    
Events Rain    
Averages and records for this station are not official NWS values.
T = Trace of Precipitation, MM = Missing Value Source: NWS Daily Summary

Daily Weather History Graph

Daily Weather History Graph

Search for Another Location

Airport:

Trip Planner

Search our weather history database for the weather conditions in past years. The results will help you decide how hot, cold, wet, or windy it might be!

Date:

Astronomy

Aug. 03, 2013 Rise Set
Actual Time 4:59 AM AKDT 9:14 PM AKDT
Civil Twilight 4:06 AM AKDT 10:06 PM AKDT
Nautical Twilight 2:42 AM AKDT 11:29 PM AKDT
Astronomical Twilight Sun does not rise Sun does not rise
Moon 2:06 AM AKDT (8/3) 7:08 PM AKDT (8/3)
Length of Visible Light 18h 00m
Length of Day
16h 15m
Waning Crescent, 9% of the Moon is Illuminated
Aug 3
Waning Crescent
Aug 6
New
Aug 14
First Quarter
Aug 20
Full
Aug 28
Last Quarter

Hourly Weather History & Observations

Time (AKDT) Temp. Dew Point Humidity Pressure Visibility Wind Dir Wind Speed Gust Speed Precip Events Conditions
12:56 AM 50.9 °F 50.0 °F 97% 30.13 in 10.0 mi East 3.5 mph - N/A   Clear
1:56 AM 48.9 °F 48.9 °F 100% 30.14 in 10.0 mi SE 3.5 mph - N/A   Clear
2:56 AM 47.8 °F 46.9 °F 97% 30.15 in 10.0 mi East 3.5 mph - N/A   Partly Cloudy
3:56 AM 47.8 °F 46.9 °F 97% 30.15 in 10.0 mi ESE 3.5 mph - N/A   Scattered Clouds
4:11 AM 48.2 °F 46.4 °F 93% 30.14 in 10.0 mi Calm Calm - N/A   Mostly Cloudy
4:44 AM 50.0 °F 48.2 °F 94% 30.15 in 10.0 mi Calm Calm - N/A   Overcast
4:56 AM 50.0 °F 48.9 °F 96% 30.16 in 10.0 mi Calm Calm - N/A   Overcast
5:56 AM 52.0 °F 50.9 °F 96% 30.16 in 10.0 mi Calm Calm - N/A   Overcast
6:56 AM 54.0 °F 52.9 °F 96% 30.17 in 10.0 mi Calm Calm - N/A   Overcast
7:56 AM 55.9 °F 52.9 °F 89% 30.17 in 10.0 mi Calm Calm - N/A   Overcast
8:56 AM 56.8 °F 52.9 °F 87% 30.17 in 10.0 mi Variable 4.6 mph - N/A   Overcast
9:56 AM 57.9 °F 52.9 °F 83% 30.17 in 10.0 mi NNW 3.5 mph - N/A   Overcast
10:28 AM 57.2 °F 53.6 °F 88% 30.17 in 10.0 mi Calm Calm - N/A   Overcast
10:56 AM 57.9 °F 52.9 °F 83% 30.17 in 10.0 mi East 4.6 mph - N/A   Overcast
11:56 AM 56.8 °F 52.9 °F 87% 30.18 in 10.0 mi ESE 4.6 mph - N/A   Overcast
12:37 PM 59.0 °F 53.6 °F 82% 30.17 in 10.0 mi ESE 5.8 mph - N/A   Overcast
12:56 PM 59.9 °F 54.0 °F 81% 30.18 in 10.0 mi East 6.9 mph - N/A   Overcast
1:36 PM 62.6 °F 53.6 °F 72% 30.16 in 10.0 mi East 6.9 mph - N/A   Partly Cloudy
1:56 PM 61.9 °F 54.0 °F 75% 30.16 in 10.0 mi East 9.2 mph - N/A   Clear
2:56 PM 63.9 °F 54.9 °F 72% 30.15 in 10.0 mi East 11.5 mph - N/A   Clear
3:56 PM 63.0 °F 54.9 °F 75% 30.13 in 10.0 mi ESE 10.4 mph - N/A   Clear
4:56 PM 61.9 °F 54.9 °F 78% 30.13 in 10.0 mi East 6.9 mph - N/A   Clear
5:56 PM 61.9 °F 54.9 °F 78% 30.12 in 10.0 mi East 5.8 mph - N/A   Clear
6:56 PM 61.0 °F 54.9 °F 80% 30.12 in 10.0 mi East 3.5 mph - N/A   Clear
7:56 PM 61.0 °F 54.9 °F 80% 30.11 in 10.0 mi East 4.6 mph - N/A   Clear
8:56 PM 59.0 °F 54.0 °F 83% 30.12 in 10.0 mi East 3.5 mph - N/A   Mostly Cloudy
9:56 PM 57.9 °F 54.0 °F 87% 30.12 in 10.0 mi ESE 3.5 mph - N/A   Clear
10:56 PM 56.8 °F 52.9 °F 87% 30.12 in 10.0 mi Calm Calm - N/A   Partly Cloudy
11:56 PM 56.8 °F 54.0 °F 90% 30.12 in 10.0 mi Calm Calm - 0.00 in Rain Light Rain